When you browse on this site, cookies collect data to enhance your experience and personalize the content and advertising you see.
Visit our Privacy Policy to learn more. By continuing to use the site, you agree to this use of cookies and data.
  • In Deutschland
  • Länderverzeichnis
  • Für 7 Tage
  • Wassertemperatur
  • Satellitenkarten
  • Wetterkarte
  • Widgets
  • user-avatar
    Anmelden

    Stündliche Wetter Mostar

    Heute, 17 November, Samstag

    Zeit Temperatur Niederschläge Wind Luftdruck Luftfeuchtigkeit
    00:00 +6°C° 0 mm 5 m/S 760 mmHg 72%
    01:00 +6°C° 0 mm 5 m/S 760 mmHg 72%
    02:00 +6°C° 0 mm 4 m/S 760 mmHg 72%
    03:00 +6°C° 0 mm 4 m/S 760 mmHg 72%
    04:00 +6°C° 0 mm 4 m/S 760 mmHg 73%
    05:00 +5°C° 0 mm 4 m/S 760 mmHg 72%
    06:00 +5°C° 0 mm 4 m/S 759 mmHg 72%
    07:00 +5°C° 0 mm 4 m/S 759 mmHg 72%
    08:00 +6°C° 0 mm 4 m/S 759 mmHg 67%
    09:00 +7°C° 0 mm 4 m/S 759 mmHg 63%
    10:00 +8°C° 0 mm 4 m/S 759 mmHg 58%
    11:00 +10°C° 0 mm 4 m/S 759 mmHg 56%
    12:00 +10°C° 0 mm 4 m/S 759 mmHg 54%
    13:00 +11°C° 0 mm 4 m/S 758 mmHg 53%
    14:00 +10°C° 0 mm 4 m/S 758 mmHg 56%
    15:00 +10°C° 0 mm 4 m/S 758 mmHg 59%
    16:00 +8°C° 0 mm 4 m/S 758 mmHg 61%
    17:00 +7°C° 0 mm 4 m/S 758 mmHg 64%
    18:00 +7°C° 0 mm 4 m/S 759 mmHg 66%
    19:00 +6°C° 0 mm 4 m/S 759 mmHg 69%
    20:00 +6°C° 0 mm 4 m/S 759 mmHg 71%
    21:00 +5°C° 0 mm 4 m/S 759 mmHg 73%
    22:00 +5°C° 0 mm 4 m/S 759 mmHg 74%
    23:00 +4°C° 0 mm 4 m/S 759 mmHg 75%

    Morgen, 18 November, Sonntag

    Zeit Temperatur Niederschläge Wind Luftdruck Luftfeuchtigkeit
    00:00 +4°C° 0 mm 4 m/S 759 mmHg 75%
    01:00 +4°C° 0 mm 4 m/S 758 mmHg 75%
    02:00 +4°C° 0 mm 4 m/S 758 mmHg 75%
    03:00 +4°C° 0 mm 4 m/S 758 mmHg 75%
    04:00 +3°C° 0 mm 4 m/S 758 mmHg 75%
    05:00 +3°C° 0 mm 4 m/S 757 mmHg 75%
    06:00 +3°C° 0 mm 4 m/S 757 mmHg 76%
    07:00 +3°C° 0 mm 4 m/S 757 mmHg 76%
    08:00 +5°C° 0 mm 4 m/S 757 mmHg 70%
    09:00 +6°C° 0 mm 4 m/S 757 mmHg 64%
    10:00 +8°C° 0 mm 4 m/S 757 mmHg 58%
    11:00 +10°C° 0 mm 4 m/S 756 mmHg 55%
    12:00 +11°C° 0 mm 3 m/S 756 mmHg 52%
    13:00 +12°C° 0 mm 3 m/S 755 mmHg 50%
    14:00 +11°C° 0 mm 3 m/S 755 mmHg 54%
    15:00 +10°C° 0 mm 3 m/S 755 mmHg 58%
    16:00 +9°C° 0 mm 3 m/S 754 mmHg 61%
    17:00 +8°C° 0 mm 3 m/S 754 mmHg 65%
    18:00 +8°C° 0 mm 3 m/S 754 mmHg 68%
    19:00 +7°C° 0 mm 3 m/S 754 mmHg 71%
    20:00 +7°C° 0 mm 3 m/S 753 mmHg 72%
    21:00 +5°C° 0 mm 3 m/S 753 mmHg 73%
    22:00 +5°C° 0 mm 3 m/S 753 mmHg 75%
    23:00 +5°C° 0 mm 3 m/S 753 mmHg 74%

    übermorgen, 19 November, Montag

    Zeit Temperatur Niederschläge Wind Luftdruck Luftfeuchtigkeit
    00:00 +5°C° 0 mm 3 m/S 753 mmHg 74%
    01:00 +5°C° 0 mm 3 m/S 752 mmHg 74%
    02:00 +5°C° 0 mm 3 m/S 752 mmHg 74%
    03:00 +5°C° 0 mm 3 m/S 752 mmHg 74%
    04:00 +6°C° 0 mm 2 m/S 751 mmHg 74%
    05:00 +6°C° 0 mm 2 m/S 751 mmHg 75%
    06:00 +5°C° 0 mm 2 m/S 751 mmHg 76%
    07:00 +5°C° 0 mm 2 m/S 751 mmHg 77%
    08:00 +7°C° 0 mm 2 m/S 751 mmHg 70%
    09:00 +8°C° 0 mm 2 m/S 751 mmHg 64%
    10:00 +10°C° 0 mm 2 m/S 751 mmHg 57%
    11:00 +12°C° 0.1 mm 2 m/S 751 mmHg 55%
    12:00 +13°C° 0.1 mm 2 m/S 750 mmHg 54%
    13:00 +12°C° 0.1 mm 3 m/S 750 mmHg 52%
    14:00 +12°C° 0.5 mm 3 m/S 750 mmHg 60%
    15:00 +11°C° 0.5 mm 3 m/S 750 mmHg 68%
    16:00 +10°C° 0.5 mm 3 m/S 750 mmHg 76%
    17:00 +10°C° 1.1 mm 3 m/S 749 mmHg 79%
    18:00 +9°C° 1.1 mm 3 m/S 749 mmHg 82%
    19:00 +9°C° 1.1 mm 3 m/S 749 mmHg 85%
    20:00 +9°C° 2.5 mm 3 m/S 749 mmHg 86%
    21:00 +8°C° 2.5 mm 4 m/S 749 mmHg 88%
    22:00 +8°C° 2.5 mm 4 m/S 748 mmHg 89%
    23:00 +8°C° 4.4 mm 4 m/S 748 mmHg 90%

    20 November, Dienstag

    Zeit Temperatur Niederschläge Wind Luftdruck Luftfeuchtigkeit
    00:00 +8°C° 4.4 mm 4 m/S 747 mmHg 91%
    01:00 +9°C° 4.4 mm 5 m/S 746 mmHg 92%
    02:00 +9°C° 4.3 mm 5 m/S 746 mmHg 93%
    03:00 +10°C° 4.3 mm 6 m/S 745 mmHg 93%
    04:00 +11°C° 4.3 mm 6 m/S 744 mmHg 94%
    05:00 +11°C° 3.5 mm 7 m/S 744 mmHg 94%
    06:00 +12°C° 3.5 mm 8 m/S 743 mmHg 93%
    07:00 +13°C° 3.5 mm 8 m/S 743 mmHg 93%
    08:00 +13°C° 4.1 mm 9 m/S 742 mmHg 92%
    09:00 +14°C° 4.1 mm 10 m/S 742 mmHg 92%
    10:00 +14°C° 4.1 mm 11 m/S 741 mmHg 91%
    11:00 +14°C° 6.6 mm 12 m/S 740 mmHg 91%
    12:00 +15°C° 6.6 mm 12 m/S 740 mmHg 91%
    13:00 +15°C° 6.6 mm 13 m/S 739 mmHg 91%
    14:00 +16°C° 4.1 mm 11 m/S 739 mmHg 89%
    15:00 +16°C° 4.1 mm 10 m/S 739 mmHg 86%
    16:00 +15°C° 4.1 mm 8 m/S 739 mmHg 84%
    17:00 +15°C° 2.1 mm 7 m/S 740 mmHg 86%
    18:00 +15°C° 2.1 mm 6 m/S 741 mmHg 89%
    19:00 +14°C° 2.1 mm 5 m/S 741 mmHg 91%
    20:00 +14°C° 0.8 mm 5 m/S 742 mmHg 92%
    21:00 +14°C° 0.8 mm 5 m/S 743 mmHg 92%
    22:00 +14°C° 0.8 mm 4 m/S 744 mmHg 93%
    23:00 +13°C° 0.4 mm 5 m/S 745 mmHg 92%

    21 November, Mittwoch

    Zeit Temperatur Niederschläge Wind Luftdruck Luftfeuchtigkeit
    00:00 +13°C° 0.4 mm 5 m/S 746 mmHg 90%
    01:00 +12°C° 0.4 mm 5 m/S 746 mmHg 89%
    02:00 +12°C° 0 mm 4 m/S 747 mmHg 86%
    03:00 +11°C° 0 mm 3 m/S 748 mmHg 84%
    04:00 +10°C° 0 mm 2 m/S 748 mmHg 81%
    05:00 +10°C° 0 mm 2 m/S 749 mmHg 79%
    06:00 +11°C° 0 mm 1 m/S 749 mmHg 76%
    07:00 +10°C° 0 mm 1 m/S 750 mmHg 74%
    08:00 +12°C° 0 mm 1 m/S 750 mmHg 72%
    09:00 +13°C° 0 mm 1 m/S 750 mmHg 69%
    10:00 +14°C° 0 mm 1 m/S 751 mmHg 67%
    11:00 +15°C° 0 mm 2 m/S 751 mmHg 66%
    12:00 +15°C° 0 mm 2 m/S 751 mmHg 66%
    13:00 +14°C° 0 mm 3 m/S 751 mmHg 65%
    14:00 +14°C° 0 mm 3 m/S 751 mmHg 69%
    15:00 +13°C° 0 mm 3 m/S 751 mmHg 72%
    16:00 +12°C° 0 mm 3 m/S 751 mmHg 76%
    17:00 +12°C° 0 mm 4 m/S 751 mmHg 78%
    18:00 +12°C° 0 mm 4 m/S 752 mmHg 79%
    19:00 +11°C° 0 mm 4 m/S 752 mmHg 81%
    20:00 +10°C° 0.1 mm 5 m/S 752 mmHg 81%
    21:00 +10°C° 0.1 mm 5 m/S 752 mmHg 81%
    22:00 +10°C° 0.1 mm 5 m/S 753 mmHg 81%
    23:00 +10°C° 0.5 mm 5 m/S 753 mmHg 81%

    22 November, Donnerstag

    Zeit Temperatur Niederschläge Wind Luftdruck Luftfeuchtigkeit
    00:00 +10°C° 0.5 mm 5 m/S 753 mmHg 81%
    01:00 +12°C° 0.5 mm 5 m/S 752 mmHg 82%
    02:00 +12°C° 0.8 mm 5 m/S 753 mmHg 84%
    03:00 +12°C° 0.8 mm 5 m/S 753 mmHg 86%
    04:00 +12°C° 0.8 mm 5 m/S 753 mmHg 87%
    05:00 +12°C° 0.7 mm 5 m/S 753 mmHg 88%
    06:00 +13°C° 0.7 mm 4 m/S 753 mmHg 89%
    07:00 +13°C° 0.7 mm 4 m/S 754 mmHg 90%
    08:00 +13°C° 0.7 mm 4 m/S 754 mmHg 89%
    09:00 +14°C° 0.7 mm 4 m/S 754 mmHg 89%
    10:00 +14°C° 0.7 mm 4 m/S 755 mmHg 88%
    11:00 +14°C° 1 mm 4 m/S 755 mmHg 87%
    12:00 +14°C° 1 mm 3 m/S 755 mmHg 86%
    13:00 +16°C° 1 mm 3 m/S 755 mmHg 85%
    14:00 +14°C° 0.7 mm 3 m/S 755 mmHg 86%
    15:00 +15°C° 0.7 mm 2 m/S 756 mmHg 88%
    16:00 +14°C° 0.7 mm 2 m/S 756 mmHg 89%
    17:00 +14°C° 0.2 mm 2 m/S 757 mmHg 90%
    18:00 +14°C° 0.2 mm 1 m/S 757 mmHg 91%
    19:00 +13°C° 0.2 mm 1 m/S 757 mmHg 91%
    20:00 +13°C° 0.1 mm 1 m/S 758 mmHg 91%
    21:00 +13°C° 0.1 mm 1 m/S 758 mmHg 91%
    22:00 +13°C° 0.1 mm 2 m/S 759 mmHg 91%
    23:00 +12°C° 0.1 mm 2 m/S 759 mmHg 91%
    Mehr zeigen